Regional Weather Roundup
Issued by NWS

Home | Current Version | Previous Version | Graphics & Text | Print | Product List | Glossary On
Versions: 1 2 3 4 5 6 7 8 9 10 11 12 13 14 15 16 17 18 19 20 21 22 23 24 25 26 27 28 29 30 31 32 33 34 35 36 37 38 39 40 41 42 43 44 45 46 47 48 49 50
000
ASUS43 KFSD 222002
RWRSD

WEATHER ROUNDUP FOR SOUTH DAKOTA
NATIONAL WEATHER SERVICE SIOUX FALLS SD
200 PM CST SUN JAN 22 2017

NOTE: "FAIR" INDICATES FEW OR NO CLOUDS BELOW 12,000 FEET WITH NO
SIGNIFICANT WEATHER AND/OR OBSTRUCTIONS TO VISIBILITY.


SDZ001>005-009-010-012>017-222100-
NORTHWEST AND NORTH CENTRAL SOUTH DAKOTA

CITY           SKY/WX    TMP DP  RH WIND       PRES   REMARKS
BUFFALO          N/A     32  24  72 W10       29.74F WCI  24
FAITH            N/A     25  23  92 NW7       29.82F WCI  17
MOBRIDGE       CLOUDY    28  24  85 NW10      29.79S WCI  19
$$

SDZ012>016-024>037-041>051-057-063-072>074-222100-
SOUTHWEST AND SOUTH CENTRAL SOUTH DAKOTA

CITY           SKY/WX    TMP DP  RH WIND       PRES   REMARKS
RAPID CTY ARPT SUNNY     39  26  59 SE6       29.83F
PIERRE         CLOUDY    28  24  85 W16       29.84F WCI  16
CUSTER         SUNNY     36  13  38 NW13G23   29.80F
ELLSWORTH AFB  SUNNY     43  23  45 N6        29.82F
PHILIP         SUNNY     36  28  73 NE5       29.86S
PINE RIDGE     PTSUNNY   37  27  67 W8        29.86F
SPEARFISH      FAIR      41  19  42 W10       29.82F
WINNER         FAIR      40  29  64 NW14      29.84S
$$

SDZ004>011-016>023-039-040-222100-
NORTHEAST SOUTH DAKOTA

CITY           SKY/WX    TMP DP  RH WIND       PRES   REMARKS
ABERDEEN       CLOUDY    29  24  82 W12       29.79F WCI  19
WATERTOWN      CLOUDY    29  28  96 W12       29.75S FOG     WCI  19
BROOKINGS      CLOUDY    28  27  96 NW14      29.77S FOG     WCI  17
SISSETON         N/A     34  31  88 NW13      29.75F WCI  25
$$

SDZ017-020-022-023-036>040-048>070-222100-
SOUTHEAST SOUTH DAKOTA

CITY           SKY/WX    TMP DP  RH WIND       PRES   REMARKS
SIOUX FALLS    CLOUDY    32  29  88 NW13      29.80S FOG     WCI  22
HURON          CLOUDY    29  27  92 W12       29.82S WCI  19
CHAMBERLAIN    SUNNY     34  28  77 W16       29.84S WCI  23
MITCHELL       MOSUNNY   31  27  85 NW15      29.85S WCI  20
YANKTON        MOSUNNY   37  28  70 NW14      29.81S
$$

ABBREVIATIONS USED IN REMARKS
   TC - TEMPERATURE IN CELSIUS
  WCI - WIND CHILL INDEX
   HX - HEAT INDEX
  VSB - VISIBILITY




USA.gov is the U.S. government's official web portal to all federal, state and local government web resources and services.